• In Uzbekistan
  • List of Countries
  • For 7 days
  • Water Temperature
  • Satellite Maps
  • Weather Map
  • Weather Widgets
  • user-avatar
    Login

    Hourly Weather Ngozi

    Today, 22 April, Monday

    Time Temperature Precipitation Wind Pressure Humidity
    00:00 +15°C° 0 mm 1 mps 617 mmHg 94%
    01:00 +14°C° 0 mm 1 mps 616 mmHg 94%
    02:00 +14°C° 0 mm 1 mps 616 mmHg 93%
    03:00 +14°C° 0 mm 1 mps 616 mmHg 93%
    04:00 +14°C° 0 mm 1 mps 616 mmHg 92%
    05:00 +14°C° 0 mm 1 mps 616 mmHg 92%
    06:00 +15°C° 0 mm 0 mps 617 mmHg 86%
    07:00 +17°C° 0 mm 0 mps 618 mmHg 81%
    08:00 +18°C° 0 mm 0 mps 619 mmHg 76%
    09:00 +22°C° 0 mm 0 mps 620 mmHg 65%
    10:00 +25°C° 0 mm 0 mps 621 mmHg 54%
    11:00 +28°C° 0 mm 0 mps 622 mmHg 43%
    12:00 +28°C° 0 mm 0 mps 621 mmHg 43%
    13:00 +29°C° 0 mm 1 mps 620 mmHg 44%
    14:00 +28°C° 0 mm 1 mps 619 mmHg 44%
    15:00 +27°C° 0.1 mm 1 mps 619 mmHg 50%
    16:00 +26°C° 0.1 mm 1 mps 618 mmHg 57%
    17:00 +25°C° 0.1 mm 1 mps 618 mmHg 64%
    18:00 +23°C° 0.7 mm 1 mps 618 mmHg 72%
    19:00 +20°C° 0.7 mm 1 mps 617 mmHg 81%
    20:00 +18°C° 0.7 mm 1 mps 617 mmHg 90%
    21:00 +18°C° 0.4 mm 1 mps 617 mmHg 91%
    22:00 +16°C° 0.4 mm 1 mps 617 mmHg 92%
    23:00 +16°C° 0.4 mm 1 mps 618 mmHg 93%

    Tomorrow, 23 April, Tuesday

    Time Temperature Precipitation Wind Pressure Humidity
    00:00 +16°C° 0.4 mm 1 mps 617 mmHg 93%
    01:00 +16°C° 0.4 mm 1 mps 617 mmHg 93%
    02:00 +16°C° 0.4 mm 1 mps 617 mmHg 93%
    03:00 +15°C° 0.2 mm 1 mps 617 mmHg 94%
    04:00 +15°C° 0.2 mm 1 mps 617 mmHg 94%
    05:00 +15°C° 0.2 mm 1 mps 617 mmHg 94%
    06:00 +16°C° 0.1 mm 1 mps 618 mmHg 90%
    07:00 +18°C° 0.1 mm 1 mps 619 mmHg 87%
    08:00 +20°C° 0.1 mm 1 mps 620 mmHg 83%
    09:00 +22°C° 0.1 mm 1 mps 620 mmHg 74%
    10:00 +24°C° 0.1 mm 1 mps 621 mmHg 64%
    11:00 +26°C° 0.1 mm 1 mps 622 mmHg 55%
    12:00 +26°C° 0.5 mm 1 mps 621 mmHg 59%
    13:00 +25°C° 0.5 mm 1 mps 620 mmHg 64%
    14:00 +25°C° 0.5 mm 1 mps 620 mmHg 68%
    15:00 +23°C° 1.1 mm 1 mps 619 mmHg 76%
    16:00 +22°C° 1.1 mm 1 mps 618 mmHg 83%
    17:00 +20°C° 1.1 mm 1 mps 618 mmHg 91%
    18:00 +20°C° 0.7 mm 1 mps 618 mmHg 92%
    19:00 +17°C° 0.7 mm 0 mps 618 mmHg 93%
    20:00 +16°C° 0.7 mm 0 mps 619 mmHg 95%
    21:00 +16°C° 1 mm 0 mps 619 mmHg 95%
    22:00 +16°C° 1 mm 0 mps 619 mmHg 96%
    23:00 +18°C° 1 mm 1 mps 620 mmHg 96%

    Day after tomorrow, 24 April, Wednesday

    Time Temperature Precipitation Wind Pressure Humidity
    00:00 +18°C° 1.2 mm 1 mps 619 mmHg 96%
    01:00 +18°C° 1.2 mm 1 mps 619 mmHg 96%
    02:00 +16°C° 1.2 mm 1 mps 618 mmHg 97%
    03:00 +16°C° 0.3 mm 1 mps 618 mmHg 96%
    04:00 +16°C° 0.3 mm 1 mps 618 mmHg 96%
    05:00 +16°C° 0.3 mm 1 mps 618 mmHg 95%
    06:00 +18°C° 0 mm 1 mps 619 mmHg 93%
    07:00 +17°C° 0 mm 0 mps 620 mmHg 90%
    08:00 +18°C° 0 mm 0 mps 621 mmHg 87%
    09:00 +20°C° 0 mm 0 mps 621 mmHg 77%
    10:00 +22°C° 0 mm 0 mps 622 mmHg 67%
    11:00 +24°C° 0 mm 0 mps 623 mmHg 56%
    12:00 +24°C° 0 mm 0 mps 622 mmHg 56%
    13:00 +24°C° 0 mm 0 mps 621 mmHg 55%
    14:00 +27°C° 0 mm 1 mps 621 mmHg 54%
    15:00 +23°C° 0.2 mm 0 mps 620 mmHg 61%
    16:00 +22°C° 0.2 mm 0 mps 619 mmHg 68%
    17:00 +21°C° 0.2 mm 0 mps 619 mmHg 75%
    18:00 +19°C° 0.1 mm 0 mps 619 mmHg 79%
    19:00 +18°C° 0.1 mm 0 mps 619 mmHg 84%
    20:00 +17°C° 0.1 mm 0 mps 619 mmHg 89%
    21:00 +18°C° 0.1 mm 1 mps 619 mmHg 89%
    22:00 +18°C° 0.1 mm 1 mps 619 mmHg 90%
    23:00 +18°C° 0.1 mm 1 mps 620 mmHg 90%

    25 April, Thursday

    Time Temperature Precipitation Wind Pressure Humidity
    00:00 +18°C° 0 mm 1 mps 619 mmHg 91%
    01:00 +16°C° 0 mm 1 mps 619 mmHg 91%
    02:00 +16°C° 0 mm 1 mps 618 mmHg 91%
    03:00 +16°C° 0.1 mm 1 mps 618 mmHg 90%
    04:00 +16°C° 0.1 mm 1 mps 618 mmHg 90%
    05:00 +16°C° 0.1 mm 1 mps 618 mmHg 90%
    06:00 +16°C° 0.2 mm 1 mps 619 mmHg 89%
    07:00 +16°C° 0.2 mm 0 mps 620 mmHg 88%
    08:00 +16°C° 0.2 mm 0 mps 620 mmHg 87%
    09:00 +18°C° 0.1 mm 0 mps 621 mmHg 80%
    10:00 +21°C° 0.1 mm 0 mps 621 mmHg 72%
    11:00 +23°C° 0.1 mm 0 mps 622 mmHg 65%
    12:00 +24°C° 0 mm 0 mps 621 mmHg 60%
    13:00 +25°C° 0 mm 0 mps 621 mmHg 55%
    14:00 +26°C° 0 mm 0 mps 620 mmHg 51%
    15:00 +25°C° 0 mm 0 mps 620 mmHg 55%
    16:00 +24°C° 0 mm 0 mps 619 mmHg 58%
    17:00 +23°C° 0 mm 0 mps 619 mmHg 62%
    18:00 +21°C° 0.1 mm 0 mps 619 mmHg 68%
    19:00 +19°C° 0.1 mm 0 mps 619 mmHg 73%
    20:00 +17°C° 0.1 mm 0 mps 619 mmHg 78%
    21:00 +16°C° 0.1 mm 0 mps 619 mmHg 80%
    22:00 +16°C° 0.1 mm 0 mps 619 mmHg 82%
    23:00 +16°C° 0.1 mm 0 mps 619 mmHg 84%

    26 April, Friday

    Time Temperature Precipitation Wind Pressure Humidity
    00:00 +16°C° 0 mm 0 mps 619 mmHg 85%
    01:00 +15°C° 0 mm 0 mps 618 mmHg 87%
    02:00 +15°C° 0 mm 0 mps 618 mmHg 88%
    03:00 +15°C° 0 mm 0 mps 618 mmHg 89%
    04:00 +15°C° 0 mm 0 mps 618 mmHg 90%
    05:00 +15°C° 0 mm 0 mps 618 mmHg 91%
    06:00 +16°C° 0 mm 0 mps 619 mmHg 87%
    07:00 +17°C° 0 mm 0 mps 619 mmHg 82%
    08:00 +19°C° 0 mm 0 mps 620 mmHg 77%
    09:00 +21°C° 0 mm 0 mps 621 mmHg 69%
    10:00 +23°C° 0 mm 0 mps 621 mmHg 60%
    11:00 +27°C° 0 mm 1 mps 622 mmHg 52%
    12:00 +27°C° 0.2 mm 1 mps 621 mmHg 51%
    13:00 +28°C° 0.2 mm 1 mps 620 mmHg 49%
    14:00 +28°C° 0.2 mm 2 mps 619 mmHg 48%
    15:00 +27°C° 0.5 mm 1 mps 619 mmHg 55%
    16:00 +25°C° 0.5 mm 1 mps 618 mmHg 63%
    17:00 +24°C° 0.5 mm 1 mps 618 mmHg 71%
    18:00 +23°C° 0.7 mm 1 mps 618 mmHg 76%
    19:00 +21°C° 0.7 mm 1 mps 618 mmHg 82%
    20:00 +19°C° 0.7 mm 1 mps 618 mmHg 88%
    21:00 +19°C° 0.4 mm 1 mps 618 mmHg 89%
    22:00 +18°C° 0.4 mm 1 mps 618 mmHg 91%
    23:00 +18°C° 0.4 mm 1 mps 618 mmHg 92%

    27 April, Saturday

    Time Temperature Precipitation Wind Pressure Humidity
    00:00 +18°C° 0.4 mm 1 mps 618 mmHg 92%
    01:00 +18°C° 0.4 mm 1 mps 617 mmHg 93%
    02:00 +16°C° 0.4 mm 1 mps 617 mmHg 93%
    03:00 +16°C° 0 mm 1 mps 617 mmHg 93%
    04:00 +16°C° 0 mm 1 mps 617 mmHg 93%
    05:00 +16°C° 0 mm 1 mps 617 mmHg 93%
    06:00 +16°C° 0 mm 0 mps 618 mmHg 88%
    07:00 +18°C° 0 mm 0 mps 619 mmHg 84%
    08:00 +19°C° 0 mm 0 mps 620 mmHg 80%
    09:00 +22°C° 0 mm 0 mps 620 mmHg 70%
    10:00 +26°C° 0 mm 1 mps 621 mmHg 60%
    11:00 +28°C° 0 mm 1 mps 621 mmHg 50%
    12:00 +28°C° 0.1 mm 1 mps 621 mmHg 49%
    13:00 +28°C° 0.1 mm 1 mps 620 mmHg 49%
    14:00 +28°C° 0.1 mm 1 mps 620 mmHg 49%
    15:00 +27°C° 0.5 mm 1 mps 619 mmHg 59%
    16:00 +25°C° 0.5 mm 1 mps 619 mmHg 69%
    17:00 +23°C° 0.5 mm 1 mps 618 mmHg 79%
    18:00 +22°C° 1.4 mm 1 mps 618 mmHg 83%
    19:00 +20°C° 1.4 mm 1 mps 618 mmHg 87%
    20:00 +19°C° 1.4 mm 1 mps 618 mmHg 91%
    21:00 +18°C° 0.5 mm 1 mps 618 mmHg 92%
    22:00 +18°C° 0.5 mm 1 mps 619 mmHg 94%
    23:00 +18°C° 0.5 mm 1 mps 619 mmHg 95%
    Show more